Total_Precipitation_Accumulation
0.34 0.35 0.32 0.39 0.44 0.48 0.75 1.40 1.66 1.50 1.25 1.63 2.15 2.25 2.51 2.43 2.26 2.30 2.23 2.17 2.07 1.92
0.42 0.39 0.40 0.56 0.44 0.60 0.56 0.82 1.17 1.49 1.35 1.22 1.54 2.04 2.37 2.32 2.26 2.31 2.23 2.08 1.91 1.54
0.34 0.38 0.40 0.54 0.38 0.50 0.57 0.81 1.20 1.50 1.85 1.86 1.48 1.48 2.06 2.17 2.09 2.00 1.77 1.90 1.85 1.55
0.49 0.49 0.53 0.55 0.59 0.60 0.80 1.05 1.30 1.66 2.17 2.71 2.42 2.06 1.88 1.89 1.84 1.69 1.56 1.74 1.78 1.63
0.71 0.70 0.70 0.87 0.89 0.99 1.17 1.28 1.55 1.87 2.29 2.61 2.88 2.70 2.41 2.06 1.85 1.83 1.59 1.52 1.85 1.72
1.03 0.82 1.10 1.18 1.43 1.67 1.75 1.84 1.88 1.94 2.06 2.21 2.30 2.59 2.38 1.89 1.54 1.55 1.48 1.31 1.32 1.36
0.77 1.04 1.26 1.28 1.37 1.75 1.90 1.71 1.44 1.39 1.38 1.13 1.14 1.54 1.81 1.90 1.90 1.78 1.70 1.63 1.54 1.38
0.72 1.13 1.33 1.64 1.66 1.41 1.12 0.99 0.94 0.85 0.80 0.81 0.96 1.38 1.51 1.66 1.75 2.00 2.05 1.88 1.86 1.90
0.76 0.68 0.76 0.74 0.67 0.72 0.85 0.88 0.77 0.59 0.55 0.54 0.65 1.21 1.45 1.76 1.77 1.90 2.21 2.05 1.80 1.77
0.41 0.42 0.37 0.32 0.36 0.43 0.47 0.52 0.63 0.73 0.57 0.38 0.60 1.14 1.01 1.46 1.45 1.69 2.07 2.16 2.11 2.21
0.22 0.26 0.34 0.49 0.59 0.59 0.54 0.40 0.35 0.43 0.81 1.13 1.03 1.08 0.94 1.15 1.03 1.20 1.68 1.97 2.11 2.30
0.40 0.48 0.63 0.79 0.86 0.74 0.64 0.64 0.51 0.45 0.46 0.55 0.91 1.23 0.75 0.64 0.69 0.82 0.87 1.13 1.53 1.86
0.77 0.79 0.89 0.85 0.71 0.63 0.65 0.58 0.63 0.69 0.47 0.57 0.35 0.78 0.72 0.49 0.34 0.67 0.70 0.71 1.01 1.52
1.12 1.09 0.93 0.77 0.64 0.59 0.55 0.55 0.49 0.47 0.54 0.51 0.41 0.51 0.65 0.67 0.43 0.57 0.64 0.53 0.50 0.65